Flag for United Kingdom Weather past 2 weeks in Wolverhampton, England, United Kingdom

Now
32 °F

Clear.


Feels Like: 27 °F
Forecast: 34 / 40 °F
Wind: 5 mph from Southeast

Location: Birmingham / Airport

Current Time: Dec 26, 2014 at 6:33:22 AM

Latest Report: Dec 26, 2014 at 6:20 AM


Visibility: 10 mi

Pressure: 30.39 "Hg

Humidity: 100%

Dew point: 32 °F

Location of WolverhamptonLocation

Historic Weather in Wolverhampton — Graph

°F

Wolverhampton temperature yesterday

Maximum temperature yesterday: 45 °F (at 11:50 AM)
Minimum temperature yesterday: 37 °F (at 2:20 AM)
Average temperature yesterday: 40 °F

Past Weeks' High & Low Weather Summary

 TemperatureHumidityPressure
High57 °F (Dec 18, 10:20 AM)100% (Dec 11, 11:20 PM)30.48 "Hg (Dec 11, 11:20 PM)
Low28 °F (Dec 13, 7:20 AM)57% (Dec 24, 1:50 PM)29.12 "Hg (Dec 12, 3:50 AM)
Average45 °F82%29.90 "Hg
* Reported Dec 11 5:20 AM — Dec 26 5:20 AM, Wolverhampton, Weather by CustomWeather, © 2014

Note: Actual official high and low records may vary slightly from our data, if they occured in-between our weather recording intervals... More about our weather records

Advertising

Wolverhampton weather history for previous 24 hours

 ConditionsComfort  
Time TempWeatherWind HumidityBarometerVisibility
5:20 AM
Dec 26
36 °FClear.3 mph93%30.42 "Hg10 mi
4:50 AM32 °FClear.3 mph100%30.42 "Hg10 mi
4:20 AM32 °FClear.2 mph93%30.42 "Hg10 mi
3:50 AM36 °FPassing clouds.3 mph93%30.45 "HgN/A
3:20 AM34 °FClear.2 mph93%30.45 "Hg10 mi
2:50 AM34 °FChilly.2 mph87%30.45 "HgN/A
2:20 AM36 °FChilly.6 mph87%30.45 "HgN/A
1:50 AM32 °FPassing clouds.3 mph100%30.45 "HgN/A
1:20 AM36 °FClear.3 mph87%30.45 "Hg10 mi
12:50 AM36 °FClear.2 mph87%30.45 "Hg10 mi
12:20 AM37 °FPassing clouds.6 mph87%30.45 "HgN/A
11:50 PM
Dec 25
37 °FPassing clouds.6 mph87%30.48 "HgN/A
11:20 PM37 °FPassing clouds.5 mph87%30.48 "HgN/A
10:50 PM37 °FPassing clouds.6 mph87%30.48 "HgN/A
10:20 PM39 °FPassing clouds.6 mph81%30.48 "HgN/A
9:50 PM39 °FPassing clouds.5 mph81%30.48 "HgN/A
9:20 PM39 °FPassing clouds.6 mph81%30.48 "HgN/A
8:50 PM39 °FPassing clouds.6 mph81%30.45 "HgN/A
8:20 PM39 °FPassing clouds.3 mph81%30.45 "HgN/A
7:50 PM39 °FLight rain. Passing clouds.6 mph81%30.45 "HgN/A
7:20 PM39 °FPassing clouds.6 mph81%30.45 "HgN/A
6:50 PM41 °FPartly cloudy.6 mph76%30.45 "HgN/A
6:20 PM41 °FPassing clouds.5 mph76%30.45 "HgN/A
5:50 PM41 °FPassing clouds.5 mph76%30.42 "HgN/A
5:20 PM41 °FPassing clouds.5 mph76%30.42 "HgN/A
4:50 PM43 °FPartly cloudy.6 mph71%30.42 "HgN/A
4:20 PM43 °FPassing clouds.7 mph71%30.42 "HgN/A
3:20 PM45 °FScattered showers. Broken clouds.8 mph66%30.39 "HgN/A
2:50 PM45 °FScattered showers. Broken clouds.9 mph66%30.39 "HgN/A
2:20 PM45 °FBroken clouds.10 mph66%30.39 "HgN/A
1:50 PM45 °FScattered clouds.10 mph66%30.39 "HgN/A
1:20 PM45 °FScattered clouds.12 mph66%30.39 "HgN/A
12:50 PM45 °FPassing clouds.12 mph66%30.36 "HgN/A
12:20 PM45 °FSunny.13 mph66%30.36 "Hg10 mi
11:50 AM45 °FSunny.9 mph66%30.36 "Hg10 mi
11:20 AM43 °FSunny.10 mph76%30.36 "Hg10 mi
10:50 AM43 °FSunny.10 mph76%30.36 "Hg10 mi
10:20 AM41 °FSunny.9 mph76%30.36 "Hg10 mi
9:50 AM41 °FSunny.8 mph76%30.33 "Hg10 mi
9:20 AM39 °FSunny.8 mph81%30.33 "Hg10 mi
8:50 AM39 °FSunny.8 mph81%30.33 "Hg10 mi
8:20 AM39 °FSunny.7 mph87%30.30 "Hg10 mi
7:50 AM39 °FClear.8 mph81%30.30 "Hg10 mi
7:20 AM39 °FClear.7 mph81%30.30 "Hg10 mi
6:50 AM39 °FClear.8 mph81%30.27 "Hg10 mi
6:20 AM37 °FClear.7 mph87%30.27 "Hg10 mi
Weather by CustomWeather, © 2014

See weather overviewHow to use our weather pages